Location: Cahas Mountain Overlook
(37.0833°N, 80.1000°W)
Time: 01:35:05
(UTC-04:00)

Courier 1B Rocket - Pass Details

Date: 13 December 2023
Orbit: 920 x 1201 km, 28.2° (Epoch: 07 September)

Event Time Altitude Azimuth Distance (km) Brightness Sun altitude
Rises 13:49:24 0° 264° (W) 3,800 8.5 25.7°
Reaches altitude 10° 13:52:53 10° 248° (WSW) 2,791 8.2 25.5°
Maximum altitude 13:57:39 21° 203° (SSW) 2,058 9.8 25.0°
Drops below altitude 10° 14:02:14 10° 157° (SSE) 2,662 8.0 24.6°
Sets 14:05:28 0° 141° (SE) 3,574 8.3 24.3°
